Regional Weather Roundup
Issued by NWS

Home | Current Version | Previous Version | Graphics & Text | Print | Product List | Glossary On
Versions: 1 2 3 4 5 6 7 8 9 10 11 12 13 14 15 16 17 18 19 20 21 22 23 24 25 26 27 28 29 30 31 32 33 34 35 36 37 38 39 40 41 42 43 44 45 46 47 48 49 50
000
ASUS43 KMPX 181810
RWRMN
WEATHER ROUNDUP FOR MINNESOTA
NATIONAL WEATHER SERVICE TWIN CITIES/CHANHASSEN MN
1200 PM CST SAT NOV 18 2017


NOTE: "FAIR" INDICATES FEW OR NO CLOUDS BELOW 12,000 FEET WITH NO
SIGNIFICANT WEATHER AND/OR OBSTRUCTIONS TO VISIBILITY. N/A MEANS
CURRENT SKY AND/OR WEATHER CONDITIONS ARE NOT AVAILABLE.

MNZ060>063-068>070-181900-
   Twin Cities Metro

CITY           SKY/WX    TMP DP  RH WIND       PRES   REMARKS
TWIN CITIES    SUNNY     36  23  59 NW18G25   29.82S
6HR MIN TEMP:  31; 6HR MAX TEMP:  36;

ST PAUL        SUNNY     36  24  62 NW18G24   29.83S
CRYSTAL        SUNNY     35  18  49 NW16G26   29.82S WCI  25
BLAINE         SUNNY     36  25  64 NW14G21   29.82S
LAKEVILLE      SUNNY     36  25  64 NW18      29.81S
EDEN PRAIRIE   SUNNY     37  22  54 NW17G23   29.82S
6HR MIN TEMP:  32; 6HR MAX TEMP:  37;

SOUTH ST PAUL  SUNNY     36  23  57 NW13G23   29.81S
LAKE ELMO      FAIR      36  28  75 NW16      29.82R
$$
MNZ001>005-007-008-013>017-022>024-027-028-181900-
   Northwest Minnesota

CITY           SKY/WX    TMP DP  RH WIND       PRES   REMARKS
BEMIDJI        CLOUDY    20  13  73 NW16G22   29.91S WCI   6
HALLOCK        FLURRIES  18  10  73 NW14      29.99S WCI   4
ROSEAU         FLURRIES  18  12  79 NW13      29.93F WCI   4
WARROAD        LGT SNOW  16  10  79 W9        29.92F WCI   4
THIEF RVR FALL FLURRIES  16  11  80 NW15      29.98S WCI   1
CROOKSTON      FLURRIES  18  10  73 NW17G23   30.02S WCI   2
FOSSTON        LGT SNOW  16  10  79 NW12      29.97S WCI   3
DETROIT LAKES  CLOUDY    21  14  73 NW16G25   29.98R WCI   7
MOORHEAD       LGT RAIN  21  10  63 NW21      30.04R WCI   6
PARK RAPIDS    CLOUDY    21  13  71 NW18G25   29.91R WCI   6
MAHNOMEN       FLURRIES  19  12  76 NW16      29.97S WCI   4
$$
MNZ006-009>011-018-025>026-181900-
   North Central Minnesota

CITY           SKY/WX    TMP DP  RH WIND       PRES   REMARKS
BAUDETTE       FLURRIES  17  11  77 NW14      29.89S WCI   3
FLAG ISLAND    LGT SNOW  16   9  73 NW18G24   29.89F WCI  -1
INTL FALLS     CLOUDY    22  13  68 W14       29.84S WCI   9
6HR MIN TEMP:  14; 6HR MAX TEMP:  22; 6HR PCP:  0.01;

WASKISH        CLOUDY    19  14  79 W10       29.90R WCI   8
BIG FORK       CLOUDY    23  14  68 NW7       29.85S WCI  15
LONGVILLE      CLOUDY    21  14  73 NW13G22   29.88S WCI   9
GRAND RAPIDS   PTSUNNY   24  15  68 NW20      29.86S WCI  10
CRANE LAKE     CLOUDY    21  18  86 W3        29.83S
ORR            MOSUNNY   21  12  68 NW14      29.79F WCI   8
COOK           CLOUDY    21  16  79 W13G21    29.82S WCI   9
WALKER         CLOUDY    20  12  71 NW17G23   29.90R WCI   5
$$
MNZ012-019>021-037-181900-
   Northeast Minnesota

CITY           SKY/WX    TMP DP  RH WIND       PRES   REMARKS
DULUTH         PTSUNNY   25  17  72 NW16G25   29.76R WCI  12
6HR MIN TEMP:  21; 6HR MAX TEMP:  25;

ELY            CLOUDY    25  16  68 NW6       29.76S WCI  18
HIBBING        CLOUDY    21  14  74 NW17G28   29.81S WCI   7
EVELETH        CLOUDY    19  12  73 NW12G17   29.81R WCI   7
DULUTH HARBOR  CLOUDY    30  19  64 NW12G18   29.81F WCI  21
TWO HARBORS    MOSUNNY   36  21  55 NW9       29.74S
SILVER BAY     MOSUNNY   28  19  69 NW8       29.73R WCI  20
GRAND MARAIS     N/A     33  24  69 MISG      29.73S
G MARAIS ARPRT CLOUDY    23  18  80 NW5G18    29.67S WCI  17
$$
MNZ029>031-032-039>041-046>048-054>057-064-181900-
   West Central Minnesota

CITY           SKY/WX    TMP DP  RH WIND       PRES   REMARKS
FERGUS FALLS   SUNNY     25  12  58 N23       30.02S WCI  10
WHEATON        SUNNY     27  12  54 NW20      30.04S WCI  13
MORRIS         SUNNY     27  16  63 NW25G35   29.98R WCI  11
ALEXANDRIA     SUNNY     25  16  68 NW17G25   29.94R WCI  12
ELBOW LAKE     FAIR      23  14  68 NW16G25   29.99S HAZE    WCI  10
WADENA         MOSUNNY   21  14  73 NW16G23   29.92S WCI   7
GLENWOOD       SUNNY     27  18  69 NW21G26   29.94S WCI  13
APPLETON         N/A     28  18  64 NW20G28   29.99S WCI  15
BENSON         SUNNY     28  16  59 N23       29.98S WCI  14
ORTONVILLE     SUNNY     28  16  59 MISG      30.00S
MADISON        SUNNY     32  19  59 NW20G26   30.00S WCI  20
WILLMAR        CLOUDY    28  19  69 NW25      29.95R WCI  14
$$
MNZ033>034-036-042>043-049>051-058-059-181900-
   Central Minnesota

CITY           SKY/WX    TMP DP  RH WIND       PRES   REMARKS
ST CLOUD       MOSUNNY   30  19  63 NW20G25   29.87R WCI  17
6HR MIN TEMP:  26; 6HR MAX TEMP:  31;

SAUK CENTRE    FAIR      26  17  69 NW21      29.91S WCI  12
PAYNESVILLE    MOSUNNY   29  22  73 NW18G31   29.91R WCI  17
AITKIN         CLOUDY    25  16  68 NW12G17   29.84R WCI  14
PINE RIVER     CLOUDY    23  12  63 NW12G18   29.92R WCI  12
BRAINERD       MOSUNNY   29  15  56 NW13G23   29.87R WCI  19
STAPLES        CLOUDY    25  16  68 NW21G26   29.91R WCI  10
LONG PRAIRIE   FAIR      27  18  69 W21G30    29.91R WCI  13
LITTLE FALLS   MOSUNNY   28  10  47 NW17G26   29.89S WCI  16
LITCHFIELD     MOSUNNY   30  21  69 NW20G28   29.90R WCI  18
BUFFALO        SUNNY     33  19  56 NW18G24   29.87S WCI  22
MAPLE LAKE     SUNNY     34  22  60 NW14G23   29.88R WCI  25
HUTCHINSON     SUNNY     33  23  67 NW22G29   29.90R WCI  21
$$
MNZ037-044-045-052-053-181900-
   East Central Minnesota

CITY           SKY/WX    TMP DP  RH WIND       PRES   REMARKS
PRINCETON      SUNNY     34  21  60 W12G20    29.85R WCI  25
MORA           MOSUNNY   32  21  64 NW16      29.85R WCI  21
CAMBRIDGE      SUNNY     36  21  55 NW13      29.83S
RUSH CITY      SUNNY     32  21  64 NW9       29.82F WCI  24
MOOSE LAKE     SUNNY     30  18  59 N10G18    29.80S WCI  21
HINCKLEY       FAIR      32  19  59 NW13G18   29.81F WCI  22
CLOQUET        SUNNY     27  16  63 NW20      29.78F WCI  13
MCGREGOR       CLOUDY    28  19  69 NW9G17    29.84S WCI  20
$$
MNZ071>073-080-081-089-090-097-098-181900-
   Southwest Minnesota

CITY           SKY/WX    TMP DP  RH WIND       PRES   REMARKS
MONTEVIDEO     PTSUNNY   28  19  69 N23       29.98S WCI  14
GRANITE FALLS  CLOUDY    29  20  69 NW22G30   30.00R WCI  16
CANBY          MOSUNNY   31  18  58 NW22G29   30.01S WCI  18
MARSHALL       CLOUDY    29  18  63 NW24G30   29.98R WCI  15
REDWOOD FALLS  PTSUNNY   31  17  56 NW16G31   29.94R WCI  20
OLIVIA         MOSUNNY   30  21  69 NW24G31   29.93R WCI  16
PIPESTONE      PTSUNNY   30  19  64 NW25G33   29.96R WCI  16
WINDOM         SUNNY     34  18  51 NW24G32   29.90S WCI  21
WORTHINGTON    SUNNY     36  21  54 NW30G36   29.92S
JACKSON        SUNNY     34  21  60 NW26G39   29.90R WCI  21
SLAYTON        MOSUNNY   33  21  60 NW28G33   29.94R WCI  20
$$
MNZ065>067-074>077-082>085-091>093-181900-
   South Central Minnesota

CITY           SKY/WX    TMP DP  RH WIND       PRES   REMARKS
MANKATO        SUNNY     35  23  61 NW21G29   29.86R WCI  24
NEW ULM        SUNNY     32  19  59 NW24G33   29.89R WCI  19
ST JAMES       SUNNY     34  21  60 NW24G31   29.90R WCI  21
FAIRMONT       SUNNY     34  20  56 NW25      29.88R WCI  21
GLENCOE        SUNNY     35  23  62 NW22      29.86R WCI  23
FARIBAULT      SUNNY     36  27  69 NW10G23   29.82S
OWATONNA       SUNNY     37  28  70 NW18G25   29.82R
WASECA         SUNNY     36  28  75 NW17G25   29.85R
ALBERT LEA     SUNNY     36  34  93 NW14G23   29.81R
$$
MNZ078>079-086>088-094>096-181900-
   Southeast Minnesota

CITY           SKY/WX    TMP DP  RH WIND       PRES   REMARKS
ROCHESTER      SUNNY     39  31  72 NW17      29.77R
6HR MIN TEMP:  33; 6HR MAX TEMP:  39;

RED WING       MOSUNNY   37  25  60 N13G20    29.79R
DODGE CENTER   SUNNY     37  28  70 NW20      29.78R
WINONA         SUNNY     37  32  81 NW10      29.76S
AUSTIN         SUNNY     37  28  70 NW17G25   29.79R
PRESTON        MOSUNNY   37  30  75 NW17      29.76R
$$
ABBREVIATIONS USED IN REMARKS
   TC - TEMPERATURES IN CELSIUS
  WCI - WIND CHILL INDEX
   HX - HEAT INDEX
  VSB - VISIBILITY
$$



USA.gov is the U.S. government's official web portal to all federal, state and local government web resources and services.